Weather History for KNEW - April, 2013

Change the Weather History Date:

Tuesday, April 2, 2013

  Actual Average Record
Temperature  
Mean Temperature 67 °F 66 °F  
Max Temperature 77 °F 75 °F 85 °F (1974)
Min Temperature 56 °F 57 °F 38 °F (1994)
Degree Days  
Heating Degree Days 0 2  
Month to date heating degree days 0 4  
Since 1 July heating degree days 1098 1249  
Cooling Degree Days 2 3  
Month to date cooling degree days 3 6  
Year to date cooling degree days 71 106  
Growing Degree Days 20 (Base 50)    
Moisture  
Dew Point 59 °F    
Average Humidity 68    
Maximum Humidity 93    
Minimum Humidity 43    
Precipitation  
Precipitation 0.04 in 0.15 in 4.85 in (1980)
Month to date precipitation 0.04 0.31  
Year to date precipitation 14.92 15.31  
Snow  
Snow 0.00 in - - ()
Month to date snowfall 0.0  
Since 1 July snowfall 0.0  
Snow Depth 0.00 in    
Sea Level Pressure  
Sea Level Pressure 30.06 in    
Wind  
Wind Speed 7 mph (East)    
Max Wind Speed 16 mph    
Max Gust Speed 20 mph    
Visibility 6 miles    
Events Fog    
T = Trace of Precipitation, MM = Missing Value Source: NWS Daily Summary

Daily Weather History Graph

Daily Weather History Graph

Search for Another Location

Airport or City:

Trip Planner

Search our weather history database for the weather conditions in past years. The results will help you decide how hot, cold, wet, or windy it might be!

Date:

Astronomy

Apr. 02, 2013 Rise Set
Actual Time 6:47 AM CDT 7:19 PM CDT
Civil Twilight 6:23 AM CDT 7:43 PM CDT
Nautical Twilight 5:55 AM CDT 8:12 PM CDT
Astronomical Twilight 5:26 AM CDT 8:40 PM CDT
Moon 1:07 AM CDT (4/2) 11:55 AM CDT (4/2)
Length of Visible Light 13h 19m
Length of Day
12h 31m
Waning Gibbous, 55% of the Moon is Illuminated
Apr 2
Waning Gibbous
Apr 2
Last Quarter
Apr 10
New
Apr 18
First Quarter
Apr 25
Full

Hourly Weather History & Observations

Time (CDT) Temp. Dew Point Humidity Pressure Visibility Wind Dir Wind Speed Gust Speed Precip Events Conditions
12:53 AM 66.0 °F 57.9 °F 75% 30.05 in 10.0 mi Calm Calm - N/A   Clear
1:53 AM 66.0 °F 60.1 °F 81% 30.04 in 7.0 mi East 3.5 mph - N/A   Clear
2:53 AM 66.0 °F 61.0 °F 84% 30.04 in 8.0 mi Calm Calm - N/A   Clear
3:53 AM 64.9 °F 59.0 °F 81% 30.04 in 6.0 mi Calm Calm - N/A   Haze
4:53 AM 63.0 °F 57.0 °F 81% 30.02 in 5.0 mi SE 3.5 mph - N/A   Haze
5:53 AM 64.0 °F 59.0 °F 84% 30.04 in 4.0 mi Calm Calm - N/A   Haze
6:21 AM 62.6 °F 59.0 °F 88% 30.07 in 1.8 mi Calm Calm - N/A   Clear
6:31 AM 62.6 °F 57.2 °F 82% 30.07 in 0.5 mi Calm Calm - N/A   Haze
6:44 AM 64.4 °F 59.0 °F 83% 30.08 in 1.5 mi ESE 3.5 mph - N/A   Haze
6:53 AM 63.0 °F 57.9 °F 84% 30.07 in 0.2 mi Calm Calm - N/A   Haze
7:06 AM 62.6 °F 57.2 °F 82% 30.09 in 0.2 mi Calm Calm - N/A   Haze
7:35 AM 64.4 °F 59.0 °F 83% 30.10 in 1.0 mi ENE 3.5 mph - 0.01 in   Haze
7:37 AM 64.4 °F 60.8 °F 88% 30.10 in 2.0 mi NE 4.6 mph - 0.01 in   Haze
7:39 AM 64.4 °F 60.8 °F 88% 30.10 in 0.8 mi NE 5.8 mph - 0.01 in   Mist
7:42 AM 64.4 °F 60.8 °F 88% 30.10 in 0.2 mi NE 5.8 mph - 0.01 in Fog Fog
7:53 AM 64.9 °F 61.0 °F 87% 30.08 in 0.2 mi ENE 3.5 mph - 0.01 in Fog Fog
8:44 AM 64.4 °F 60.8 °F 88% 30.12 in 0.5 mi NE 8.1 mph - N/A Fog Fog
8:53 AM 64.9 °F 61.0 °F 87% 30.09 in 0.2 mi ENE 8.1 mph - N/A Fog Fog
9:19 AM 64.4 °F 60.8 °F 88% 30.12 in 1.0 mi ENE 8.1 mph - N/A   Mist
9:22 AM 66.2 °F 60.8 °F 83% 30.12 in 3.0 mi ENE 8.1 mph - N/A   Haze
9:42 AM 66.2 °F 60.8 °F 83% 30.12 in 6.0 mi NE 9.2 mph - N/A   Haze
9:53 AM 66.0 °F 61.0 °F 84% 30.10 in 6.0 mi NE 8.1 mph - N/A   Haze
10:53 AM 72.0 °F 61.0 °F 68% 30.09 in 10.0 mi East 8.1 mph - N/A   Clear
11:53 AM 77.0 °F 54.0 °F 45% 30.09 in 10.0 mi ESE 15.0 mph - N/A   Clear
12:53 PM 77.0 °F 55.0 °F 47% 30.09 in 10.0 mi East 12.7 mph 20.7 mph N/A   Clear
1:53 PM 78.1 °F 55.9 °F 46% 30.06 in 10.0 mi ESE 12.7 mph - N/A   Clear
2:53 PM 78.1 °F 55.0 °F 45% 30.02 in 10.0 mi SE 10.4 mph - N/A   Clear
3:53 PM 75.9 °F 59.0 °F 56% 30.00 in 10.0 mi East 12.7 mph - N/A   Partly Cloudy
4:53 PM 75.0 °F 60.1 °F 60% 29.99 in 10.0 mi East 11.5 mph - N/A   Scattered Clouds
5:53 PM 73.9 °F 60.1 °F 62% 29.99 in 10.0 mi East 9.2 mph - N/A   Clear
6:53 PM 72.0 °F 59.0 °F 64% 29.99 in 10.0 mi East 11.5 mph - N/A   Partly Cloudy
7:53 PM 72.0 °F 60.1 °F 66% 30.00 in 10.0 mi East 10.4 mph - N/A   Mostly Cloudy
8:53 PM 72.0 °F 61.0 °F 68% 29.99 in 10.0 mi East 11.5 mph - N/A   Partly Cloudy
9:53 PM 72.0 °F 61.0 °F 68% 29.99 in 10.0 mi East 10.4 mph - N/A   Overcast
10:53 PM 72.0 °F 62.1 °F 71% 29.98 in 10.0 mi East 12.7 mph - N/A   Overcast
11:53 PM 72.0 °F 63.0 °F 73% 29.96 in 10.0 mi East 11.5 mph - N/A   Overcast